TimeCDT,TemperatureF,Dew PointF,Humidity,Sea Level PressureIn,VisibilityMPH,Wind Direction,Wind SpeedMPH,Gust SpeedMPH,PrecipitationIn,Events,Conditions,WindDirDegrees,DateUTC
12:53 AM,46.0,33.1,61,30.30,10.0,NNE,8.1,-,0.00,,Clear,30,2012-10-05 05:53:00
1:53 AM,45.0,33.1,63,30.29,10.0,NE,5.8,-,N/A,,Clear,40,2012-10-05 06:53:00
2:53 AM,44.6,33.8,66,30.27,10.0,NE,8.1,-,N/A,,Clear,50,2012-10-05 07:53:00
3:53 AM,41.0,30.9,67,30.29,10.0,NE,6.9,-,N/A,,Clear,40,2012-10-05 08:53:00
4:53 AM,42.1,32.0,67,30.30,10.0,NNE,6.9,-,N/A,,Partly Cloudy,30,2012-10-05 09:53:00
5:53 AM,41.0,32.0,70,30.29,10.0,NE,5.8,-,N/A,,Clear,50,2012-10-05 10:53:00
6:53 AM,41.0,30.9,67,30.28,10.0,NNE,8.1,-,N/A,,Clear,30,2012-10-05 11:53:00
7:53 AM,41.0,30.9,67,30.30,10.0,NNE,8.1,-,N/A,,Clear,30,2012-10-05 12:53:00
8:53 AM,42.1,30.9,65,30.31,10.0,NNE,9.2,-,N/A,,Clear,30,2012-10-05 13:53:00
9:53 AM,45.0,30.0,56,30.34,10.0,NNE,10.4,-,N/A,,Clear,30,2012-10-05 14:53:00
10:53 AM,48.0,28.0,46,30.36,10.0,NNE,13.8,20.7,N/A,,Overcast,20,2012-10-05 15:53:00
11:53 AM,46.9,28.0,48,30.35,10.0,NNE,16.1,24.2,N/A,,Overcast,20,2012-10-05 16:53:00
12:53 PM,41.0,34.0,76,30.37,10.0,North,18.4,-,N/A,,Overcast,10,2012-10-05 17:53:00
1:31 PM,37.4,35.6,93,30.33,7.0,NNE,16.1,-,0.01,Rain,Rain,30,2012-10-05 18:31:00
1:40 PM,39.2,35.6,87,30.33,10.0,NNE,16.1,-,0.02,Rain,Light Rain,20,2012-10-05 18:40:00
1:49 PM,39.2,35.6,87,30.33,10.0,NNE,17.3,-,0.02,Rain,Light Rain,20,2012-10-05 18:49:00
1:53 PM,39.0,36.0,89,30.36,10.0,NNE,18.4,-,0.02,,Overcast,20,2012-10-05 18:53:00
2:34 PM,42.8,37.4,81,30.31,10.0,NNE,16.1,-,N/A,,Overcast,30,2012-10-05 19:34:00
2:53 PM,44.1,37.0,76,30.32,10.0,NE,11.5,-,N/A,,Overcast,40,2012-10-05 19:53:00
3:07 PM,44.6,35.6,71,30.30,10.0,NNE,13.8,19.6,N/A,,Overcast,20,2012-10-05 20:07:00
3:26 PM,46.4,35.6,66,30.29,10.0,NNE,12.7,-,N/A,,Overcast,20,2012-10-05 20:26:00
3:37 PM,46.4,33.8,62,30.30,10.0,NNE,10.4,19.6,N/A,,Overcast,20,2012-10-05 20:37:00
3:45 PM,46.4,33.8,62,30.29,10.0,NNE,12.7,-,N/A,,Overcast,30,2012-10-05 20:45:00
3:53 PM,46.9,34.0,61,30.32,10.0,NNE,12.7,-,N/A,,Overcast,30,2012-10-05 20:53:00
4:53 PM,46.9,32.0,56,30.30,10.0,NNE,10.4,-,N/A,,Overcast,20,2012-10-05 21:53:00
5:53 PM,48.0,30.9,52,30.30,10.0,North,8.1,-,N/A,,Overcast,10,2012-10-05 22:53:00
6:53 PM,46.9,30.0,52,30.32,10.0,North,9.2,-,N/A,,Clear,360,2012-10-05 23:53:00
7:53 PM,41.0,33.1,73,30.34,10.0,North,9.2,-,N/A,,Clear,350,2012-10-06 00:53:00
8:53 PM,37.0,32.0,82,30.37,10.0,North,8.1,-,N/A,,Clear,350,2012-10-06 01:53:00
9:53 PM,39.0,33.1,79,30.37,10.0,NNW,8.1,-,N/A,,Clear,330,2012-10-06 02:53:00
10:53 PM,39.9,34.0,79,30.36,10.0,NW,5.8,-,N/A,,Partly Cloudy,320,2012-10-06 03:53:00
11:53 PM,41.0,35.1,79,30.38,10.0,WNW,6.9,-,N/A,,Partly Cloudy,300,2012-10-06 04:53:00